Washington, IN

11:27 AM EST on February 13, 2016 (GMT -0500)
Daviess County

Weather History for KDCY - February, 2014

Change the Weather History Date:

Friday, February 14, 2014

  Actual Average (KLWV) Record (KLWV)
Temperature  
Mean Temperature 24 °F 35 °F  
Max Temperature 33 °F 44 °F 57 °F (2001)
Min Temperature 15 °F 27 °F 8 °F (2015)
Degree Days  
Heating Degree Days 41 30  
Month to date heating degree days 440  
Since 1 July heating degree days 3291  
Cooling Degree Days 0 0  
Month to date cooling degree days 0  
Year to date cooling degree days 0  
Moisture  
Dew Point 22 °F    
Average Humidity 83    
Maximum Humidity 98    
Minimum Humidity 67    
Precipitation  
Precipitation 0.10 in 0.08 in 1.33 in (1989)
Month to date precipitation 1.09  
Year to date precipitation 3.47  
Sea Level Pressure  
Sea Level Pressure 29.75 in    
Wind  
Wind Speed 11 mph (NNW)    
Max Wind Speed 21 mph    
Max Gust Speed 24 mph    
Visibility 8 miles    
Events Snow    
T = Trace of Precipitation, MM = Missing Value Source: NWS Daily Summary

Daily Weather History Graph

Daily Weather History Graph

Search for Another Location

Airport or City:

Trip Planner

Search our weather history database for the weather conditions in past years. The results will help you decide how hot, cold, wet, or windy it might be!

Date:

Astronomy

Feb. 14, 2014 Rise Set
Actual Time 7:40 AM EST 6:25 PM EST
Civil Twilight 7:13 AM EST 6:52 PM EST
Nautical Twilight 6:42 AM EST 7:23 PM EST
Astronomical Twilight 6:11 AM EST 7:54 PM EST
Moon 6:28 PM EST (2/14) 7:07 AM EST (2/14)
Length of Visible Light 11h 39m
Length of Day
10h 44m
Full, 100% of the Moon is Illuminated
Feb 14
Full
Feb 14
Full
Feb 22
Last Quarter
Mar 1
New
Mar 8
First Quarter

Hourly Weather History & Observations

Time (EST) Temp. Windchill Dew Point Humidity Pressure Visibility Wind Dir Wind Speed Gust Speed Precip Events Conditions
12:15 AM 33.3 °F 22.8 °F 23.9 °F 69% 29.71 in 10.0 mi WSW 16.1 mph - N/A   Clear
12:35 AM 33.3 °F 23.7 °F 24.3 °F 70% 29.71 in 10.0 mi WSW 13.8 mph - N/A   Clear
12:55 AM 33.1 °F 23.4 °F 24.4 °F 71% 29.71 in 10.0 mi WSW 13.8 mph - N/A   Clear
1:15 AM 32.9 °F 24.1 °F 24.8 °F 72% 29.71 in 10.0 mi WSW 11.5 mph - N/A   Clear
1:35 AM 32.7 °F 23.4 °F 24.8 °F 73% 29.71 in 10.0 mi WSW 12.7 mph - N/A   Clear
1:55 AM 32.7 °F 23.0 °F 24.8 °F 73% 29.71 in 10.0 mi WSW 13.8 mph - N/A   Clear
2:15 AM 32.5 °F 23.7 °F 25.2 °F 74% 29.71 in 10.0 mi WSW 11.5 mph - N/A   Clear
2:35 AM 33.1 °F 23.4 °F 25.7 °F 74% 29.72 in 10.0 mi WSW 13.8 mph - N/A   Clear
2:55 AM 33.3 °F 24.1 °F 25.9 °F 74% 29.72 in 10.0 mi West 12.7 mph - N/A   Clear
3:15 AM 32.7 °F 23.9 °F 26.1 °F 76% 29.72 in 10.0 mi West 11.5 mph - N/A   Clear
3:35 AM 32.0 °F 23.0 °F 25.7 °F 78% 29.72 in 10.0 mi WSW 11.5 mph - N/A   Clear
3:55 AM 31.8 °F 23.9 °F 25.5 °F 78% 29.72 in 10.0 mi West 9.2 mph - N/A   Clear
4:15 AM 30.7 °F 22.6 °F 25.0 °F 79% 29.72 in 10.0 mi West 9.2 mph - N/A   Clear
4:35 AM 29.7 °F 22.0 °F 24.8 °F 82% 29.72 in 10.0 mi West 8.1 mph - N/A   Clear
4:55 AM 29.3 °F 20.8 °F 24.8 °F 83% 29.72 in 10.0 mi West 9.2 mph - N/A   Clear
5:15 AM 29.3 °F 23.2 °F 25.0 °F 84% 29.72 in 10.0 mi West 5.8 mph - N/A   Clear
5:35 AM 28.0 °F 21.7 °F 23.9 °F 84% 29.73 in 10.0 mi West 5.8 mph - N/A   Clear
5:55 AM 26.8 °F 20.2 °F 23.2 °F 86% 29.73 in 10.0 mi West 5.8 mph - N/A   Clear
6:15 AM 25.9 °F 19.2 °F 23.2 °F 90% 29.74 in 10.0 mi West 5.8 mph - N/A   Clear
6:35 AM 27.5 °F 21.1 °F 23.5 °F 85% 29.75 in 10.0 mi WNW 5.8 mph - N/A   Clear
6:55 AM 27.9 °F 22.6 °F 23.5 °F 84% 29.75 in 10.0 mi WNW 4.6 mph - N/A   Clear
7:15 AM 26.2 °F 18.6 °F 21.9 °F 84% 29.75 in 10.0 mi West 6.9 mph - N/A   Scattered Clouds
7:35 AM 27.0 °F 19.5 °F 21.4 °F 79% 29.77 in 10.0 mi West 6.9 mph - N/A   Scattered Clouds
7:55 AM 27.0 °F 21.6 °F 21.2 °F 79% 29.76 in 10.0 mi WNW 4.6 mph - N/A   Scattered Clouds
8:15 AM 25.3 °F 16.7 °F 21.9 °F 87% 29.78 in 10.0 mi NW 8.1 mph - N/A   Scattered Clouds
8:35 AM 26.6 °F 19.1 °F 22.1 °F 83% 29.79 in 10.0 mi NNW 6.9 mph - N/A   Overcast
8:55 AM 26.6 °F 19.1 °F 20.1 °F 77% 29.80 in 10.0 mi NW 6.9 mph - N/A   Overcast
9:15 AM 26.6 °F 21.2 °F 19.4 °F 74% 29.81 in 10.0 mi NW 4.6 mph - N/A   Overcast
9:35 AM 26.6 °F 21.2 °F 18.9 °F 73% 29.79 in 10.0 mi North 4.6 mph - N/A   Mostly Cloudy
9:55 AM 26.6 °F 20.0 °F 18.7 °F 72% 29.77 in 10.0 mi NNE 5.8 mph - N/A   Overcast
10:15 AM 27.0 °F 20.5 °F 19.2 °F 73% 29.77 in 10.0 mi NNE 5.8 mph - N/A   Mostly Cloudy
10:35 AM 27.7 °F 20.4 °F 20.3 °F 74% 29.76 in 10.0 mi East 6.9 mph - N/A   Scattered Clouds
10:55 AM 27.9 °F 19.8 °F 20.1 °F 73% 29.74 in 10.0 mi ENE 8.1 mph - N/A   Mostly Cloudy
11:15 AM 28.4 °F 23.3 °F 19.4 °F 69% 29.75 in 10.0 mi ESE 4.6 mph - N/A   Overcast
11:35 AM 28.8 °F 23.7 °F 19.9 °F 70% 29.74 in 10.0 mi East 4.6 mph - N/A   Overcast
11:55 AM 29.3 °F 23.2 °F 21.0 °F 71% 29.73 in 10.0 mi East 5.8 mph - N/A   Overcast
12:15 PM 30.0 °F - 20.3 °F 67% 29.75 in 10.0 mi Calm Calm - N/A   Overcast
12:35 PM 29.8 °F - 21.4 °F 71% 29.74 in 10.0 mi Calm Calm - N/A   Overcast
12:55 PM 30.2 °F 25.4 °F 22.1 °F 72% 29.70 in 10.0 mi NNE 4.6 mph - N/A   Overcast
1:15 PM 30.2 °F 25.4 °F 21.7 °F 71% 29.69 in 7.0 mi NE 4.6 mph - N/A Snow Light Snow
1:35 PM 28.8 °F 23.7 °F 24.8 °F 85% 29.70 in 0.5 mi NNE 4.6 mph - N/A Snow Snow
1:55 PM 27.5 °F 22.2 °F 26.4 °F 96% 29.69 in 0.5 mi NNE 4.6 mph - 0.01 in Snow Light Snow
2:15 PM 27.9 °F 21.5 °F 27.0 °F 96% 29.68 in 0.2 mi NE 5.8 mph - 0.02 in Snow Snow
2:35 PM 28.0 °F 20.8 °F 27.3 °F 97% 29.67 in 0.2 mi ENE 6.9 mph - 0.04 in Snow Snow
2:55 PM 28.4 °F 21.2 °F 27.5 °F 96% 29.67 in 0.2 mi NE 6.9 mph - 0.06 in Snow Snow
3:15 PM 28.4 °F 19.7 °F 27.7 °F 97% 29.65 in 0.2 mi NE 9.2 mph - 0.02 in Snow Heavy Snow
3:35 PM 28.8 °F 20.9 °F 28.0 °F 97% 29.65 in 0.8 mi NE 8.1 mph - 0.03 in Snow Light Snow
3:55 PM 29.1 °F 20.6 °F 28.4 °F 97% 29.64 in 1.2 mi ENE 9.2 mph - 0.03 in Snow Light Snow
4:15 PM 29.3 °F 20.8 °F 28.8 °F 98% 29.65 in 1.8 mi NE 9.2 mph - N/A Snow Light Snow
4:35 PM 30.2 °F 22.6 °F 29.5 °F 97% 29.65 in 1.5 mi NNE 8.1 mph - N/A Snow Light Snow
4:56 PM 29.5 °F 19.3 °F 28.9 °F 98% 29.67 in 2.5 mi North 12.7 mph - N/A   Overcast
5:15 PM 28.4 °F 17.5 °F 27.5 °F 96% 29.68 in 2.0 mi North 13.8 mph - N/A   Overcast
5:35 PM 26.8 °F 15.4 °F 25.7 °F 96% 29.69 in 1.8 mi North 13.8 mph 17.3 mph N/A   Overcast
5:55 PM 26.1 °F 12.7 °F 24.8 °F 95% 29.70 in 1.5 mi North 18.4 mph - N/A   Overcast
6:15 PM 24.8 °F 11.5 °F 23.5 °F 95% 29.72 in 2.5 mi North 17.3 mph - N/A Snow Light Snow
6:35 PM 24.4 °F 10.6 °F 23.0 °F 94% 29.74 in 3.0 mi North 18.4 mph - N/A   Overcast
6:55 PM 23.9 °F 9.1 °F 22.5 °F 94% 29.76 in 3.0 mi NNW 20.7 mph - N/A   Overcast
7:15 PM 23.5 °F 9.0 °F 22.1 °F 94% 29.78 in 3.0 mi North 19.6 mph 24.2 mph N/A   Overcast
7:35 PM 23.0 °F 10.1 °F 21.2 °F 93% 29.79 in 4.0 mi North 15.0 mph 20.7 mph N/A   Overcast
7:55 PM 22.8 °F 10.9 °F 20.7 °F 91% 29.79 in 7.0 mi North 12.7 mph - N/A   Overcast
8:15 PM 22.5 °F 11.7 °F 19.4 °F 88% 29.81 in 7.0 mi NNW 10.4 mph - N/A   Overcast
8:35 PM 21.9 °F 9.8 °F 18.9 °F 88% 29.82 in 10.0 mi NNW 12.7 mph - N/A   Overcast
8:55 PM 21.6 °F 9.3 °F 18.5 °F 88% 29.84 in 10.0 mi NNW 12.7 mph - N/A   Overcast
9:15 PM 20.3 °F 6.6 °F 17.2 °F 88% 29.85 in 10.0 mi NW 15.0 mph 24.2 mph N/A   Overcast
9:35 PM 19.0 °F 4.5 °F 15.1 °F 85% 29.87 in 10.0 mi NW 16.1 mph 24.2 mph N/A   Overcast
9:55 PM 18.3 °F 4.1 °F 14.4 °F 85% 29.89 in 10.0 mi NW 15.0 mph - N/A   Overcast
10:15 PM 17.8 °F 3.4 °F 13.1 °F 82% 29.90 in 10.0 mi NNW 15.0 mph - N/A   Overcast
10:35 PM 16.7 °F 2.6 °F 12.2 °F 82% 29.91 in 10.0 mi NNW 13.8 mph - N/A   Mostly Cloudy
10:55 PM 15.8 °F 2.1 °F 11.1 °F 82% 29.92 in 10.0 mi NW 12.7 mph - N/A   Scattered Clouds
11:15 PM 16.2 °F 1.9 °F 10.9 °F 80% 29.93 in 10.0 mi NW 13.8 mph 18.4 mph N/A   Scattered Clouds
11:35 PM 16.5 °F 1.3 °F 11.3 °F 80% 29.94 in 10.0 mi NW 16.1 mph - N/A   Mostly Cloudy
11:55 PM 15.1 °F 1.8 °F 10.0 °F 80% 29.94 in 10.0 mi NNW 11.5 mph 17.3 mph N/A   Scattered Clouds